A/2019 O3

Japanese version
Home page
Updated on March 8, 2020

---------------------------------------------------------------------

* Profile

Discovery Date July 26, 2019
Magnitude 19.30 mag
Discoverer Q.-Z. Ye (Palomar Mountain--ZTF)

* Pictures

* Orbital Elements

Epoch 2021 Mar. 7.0 TT = JDT 2459280.5
T 2021 Mar. 7.74540 TT                                  Rudenko
q   8.8199626            (2000.0)            P               Q
z  -0.0002491      Peri.   60.03610     +0.25500771     -0.43675811
 +/-0.0000047      Node   300.38087     -0.73862777     +0.48778176
e   1.0021972      Incl.   89.81518     +0.62401929     +0.75585138
H   10.0
From 91 observations 2019 May 14-2020 Mar. 3, mean residual 0".4.

* Magnitudes Graph

        H = 8.0  G = 0.15

---------------------------------------------------------------------

The orbital elements are published on M.P.E.C. 2020-E26.
The magnitudes graphs are made with Comet for Windows.

---------------------------------------------------------------------

Copyright(C) Seiichi Yoshida (comet@aerith.net). All rights reserved.